Weather reports worldwide

Advertisment
Abbeville, France (7005): temperature & dewpoint: 29.06.2020 15:00:00 - 05.07.2020 15:00:00 (CEST)Abbeville, France (7005): temperature 5cm: 29.06.2020 15:00:00 - 05.07.2020 15:00:00 (CEST)Abbeville, France (7005): temperature -20cm & temperature -100cm: 29.06.2020 15:00:00 - 05.07.2020 15:00:00 (CEST)Abbeville, France (7005): wind speed & gusts: 29.06.2020 15:00:00 - 05.07.2020 15:00:00 (CEST)Abbeville, France (7005): wind direction: 29.06.2020 15:00:00 - 05.07.2020 15:00:00 (CEST)Abbeville, France (7005): reduced air pressure: 29.06.2020 15:00:00 - 05.07.2020 15:00:00 (CEST)Abbeville, France (7005): visibility: 29.06.2020 15:00:00 - 05.07.2020 15:00:00 (CEST)Abbeville, France (7005): sunshine duration: 29.06.2020 15:00:00 - 05.07.2020 15:00:00 (CEST)Abbeville, France (7005): precipitation: 29.06.2020 15:00:00 - 05.07.2020 15:00:00 (CEST)
Date & Time tt [°C] td [°C] tt 5cm [°C] tt -20cm [°C] tt -100cm [°C] ff [km/h] ff [kn] fx [km/h] fx [kn] dd ppp [hPa] vv [km] sd [min] rr [mm]
05.07.2020 15:00:00 17,8 15,4 16,8 17,8 15,8 34 18 59 32 W 1015,6 18 1 0,2
05.07.2020 14:00:00 18,9 15,0 18,2 17,7 15,8 36 19 59 32 W 1015,1 20 4 0,0
05.07.2020 13:00:00 18,4 16,2 17,3 17,6 15,8 31 17 61 33 W 1015,3 9 0 0,0
05.07.2020 12:00:00 18,3 15,9 17,5 17,5 15,8 30 16 54 29 W 1015,1 19 0 0,0
05.07.2020 11:00:00 17,9 16,4 17,1 17,5 15,8 20 11 44 24 WSW 1015,1 8 0 0,0
05.07.2020 10:00:00 17,8 16,3 16,9 17,5 15,8 24 13 45 25 WSW 1014,9 20 0 0,0
05.07.2020 09:00:00 17,5 16,2 17,0 17,5 15,8 17 9 38 21 WSW 1014,5 11 0 0,0
05.07.2020 08:00:00 17,3 16,5 16,6 17,5 15,8 23 12 37 20 W 1014,2 20 0 0,2
05.07.2020 07:00:00 16,9 16,3 16,4 17,6 15,8 12 6 33 18 WSW 1014,4 5 0 0,0
05.07.2020 06:00:00 17,3 15,8 16,8 17,7 15,8 16 9 32 17 WSW 1014,2 13 0 0,0
05.07.2020 05:00:00 17,5 15,5 17,0 17,8 15,8 20 11 40 21 WSW 1014,3 20 0 0,0
05.07.2020 04:00:00 17,3 15,5 16,5 17,8 15,8 24 13 48 26 WSW 1014,7 20 0 0,0
05.07.2020 03:00:00 17,1 15,6 16,7 17,9 15,8 16 9 43 23 WSW 1015,2 20 0 0,0
05.07.2020 02:00:00 17,2 15,5 16,9 18,0 15,8 24 13 48 26 WSW 1015,5 20 0 0,0
05.07.2020 01:00:00 17,2 15,9 16,5 18,1 15,8 26 14 47 25 W 1015,6 20 0 0,0
05.07.2020 00:00:00 17,2 16,4 16,7 18,1 15,8 25 14 48 26 WSW 1015,5 20 0 0,2
04.07.2020 23:00:00 17,3 16,7 16,9 18,2 15,8 24 13 49 26 W 1015,6 8 0 0,6
04.07.2020 22:00:00 17,8 17,0 17,3 18,2 15,8 25 13 37 20 W 1015,2 3,8 0 1,6
04.07.2020 21:00:00 19,0 17,7 18,3 18,2 15,8 9 5 25 13 SSW 1014,7 14 1 0,0
04.07.2020 20:00:00 19,0 17,5 18,7 18,2 15,8 9 5 27 14 SSW 1015,1 20 0 0,0
04.07.2020 19:00:00 19,0 18,0 18,4 18,1 15,8 13 7 29 16 SW 1015,1 19 0 0,8
04.07.2020 18:00:00 19,1 17,9 18,7 18,0 15,8 10 6 29 16 SSW 1015,6 18 0 0,0
04.07.2020 17:00:00 18,9 17,7 18,7 17,9 15,8 11 6 28 15 SW 1016,0 5 0 0,6
04.07.2020 16:00:00 19,2 17,2 18,7 17,7 15,8 11 6 29 16 SSW 1016,1 7 0 0,0
04.07.2020 15:00:00 19,3 16,0 19,5 17,6 15,8 13 7 41 22 SSW 1016,0 20 0 0,0
04.07.2020 14:00:00 19,9 15,1 20,6 17,5 15,8 15 8 40 21 SW 1016,1 20 0 0,0
04.07.2020 13:00:00 19,5 15,2 20,2 17,3 15,8 15 8 40 21 SW 1016,3 20 0 0,0
04.07.2020 12:00:00 18,8 15,3 18,8 17,2 15,8 13 7 42 23 SW 1016,3 20 0 0,0
04.07.2020 11:00:00 17,4 14,3 17,4 17,2 15,8 16 9 40 22 SW 1016,3 20 0 0,0
04.07.2020 10:00:00 16,8 13,7 15,8 17,2 15,8 11 6 33 18 SW 1016,4 20 0 0,0
04.07.2020 09:00:00 15,7 13,2 14,5 17,3 15,8 10 5 21 12 SSW 1016,7 20 0 0,0
04.07.2020 08:00:00 14,8 12,5 13,7 17,3 15,8 8 4 21 11 SSW 1016,7 20 0 0,2
04.07.2020 07:00:00 14,5 12,4 13,3 17,4 15,8 8 4 19 10 SSW 1016,8 20 0 0,4
04.07.2020 06:00:00 14,8 12,1 13,4 17,6 15,8 9 5 20 11 SSW 1016,9 19 0 0,2
04.07.2020 05:00:00 15,2 12,5 14,6 17,7 15,8 7 4 19 10 SSW 1017,0 20 0 0,0
04.07.2020 04:00:00 14,9 12,6 14,3 17,9 15,8 5 3 11 6 S 1017,6 20 0 0,0
04.07.2020 03:00:00 14,5 12,7 13,6 18,1 15,8 6 3 10 6 S 1018,0 20 0 0,0
04.07.2020 02:00:00 14,4 12,9 13,6 18,3 15,8 5 3 10 5 S 1018,4 20 0 0,0
04.07.2020 01:00:00 14,4 12,8 13,8 18,5 15,8 4 2 8 5 SSW 1018,9 20 0 0,0
04.07.2020 00:00:00 14,6 12,6 13,9 18,7 15,8 5 3 14 8 WSW 1019,1 20 0 0,0
03.07.2020 23:00:00 15,0 12,7 14,2 18,9 15,8 10 5 19 10 W 1019,3 20 0 0,0
03.07.2020 22:00:00 16,1 12,1 15,2 19,1 15,8 13 7 24 13 W 1019,0 20 0 0,0
03.07.2020 21:00:00 16,9 11,4 16,5 19,2 15,8 14 8 35 19 W 1019,2 20 16 0,0
03.07.2020 20:00:00 18,3 11,1 18,8 19,2 15,8 20 11 41 22 W 1019,1 20 42 0,0
03.07.2020 19:00:00 18,8 10,9 20,5 19,1 15,8 27 15 44 24 W 1019,3 20 57 0,0
03.07.2020 18:00:00 19,2 11,0 20,4 18,8 15,8 25 13 37 20 W 1019,6 20 24 0,0
03.07.2020 17:00:00 19,5 10,5 22,5 18,4 15,8 27 14 42 23 W 1019,7 20 60 0,0
03.07.2020 16:00:00 19,6 10,3 23,2 18,0 15,8 28 15 43 23 W 1019,9 20 60 0,0
03.07.2020 15:00:00 19,2 9,9 20,9 17,6 15,8 29 15 51 27 W 1020,0 20 53 0,0
03.07.2020 14:00:00 18,8 10,6 19,7 17,2 15,8 29 16 53 28 W 1020,4 20 42 0,0
03.07.2020 13:00:00 19,4 9,8 19,6 16,9 15,8 23 12 39 21 W 1020,3 20 56 0,0
03.07.2020 12:00:00 18,4 11,2 17,2 16,6 15,8 25 13 37 20 W 1020,2 20 49 0,0
03.07.2020 11:00:00 17,9 11,0 18,1 16,4 15,8 24 13 36 19 W 1019,7 20 45 0,0
03.07.2020 10:00:00 17,2 10,8 17,1 16,4 15,8 22 12 32 18 W 1019,4 20 21 0,0
03.07.2020 09:00:00 16,0 12,5 15,6 16,4 15,8 20 11 29 16 W 1019,0 20 17 0,0
03.07.2020 08:00:00 15,1 13,5 13,7 16,4 15,9 13 7 22 12 W 1019,0 20 11 0,0
03.07.2020 07:00:00 13,6 12,5 12,4 16,6 15,8 10 5 19 10 WSW 1018,6 20 9 0,0
03.07.2020 06:00:00 13,0 11,9 12,2 16,8 15,9 7 4 19 11 SW 1018,3 20 0 0,0
03.07.2020 05:00:00 12,6 11,7 11,6 17,0 15,9 8 4 16 9 SW 1017,9 20 0 0,0
03.07.2020 04:00:00 12,8 11,7 11,7 17,1 15,8 9 5 21 11 SW 1017,9 20 0 0,0
03.07.2020 03:00:00 12,8 11,9 11,1 17,4 15,8 9 5 17 9 WSW 1017,9 20 0 0,0
03.07.2020 02:00:00 12,6 11,2 11,5 17,6 15,8 6 3 15 8 SW 1017,8 20 0 0,0
03.07.2020 01:00:00 12,8 11,2 11,5 17,9 15,8 6 4 14 8 SW 1017,7 20 0 0,0
03.07.2020 00:00:00 13,3 11,4 12,3 18,1 15,8 9 5 21 11 WSW 1017,4 20 0 0,0
02.07.2020 23:00:00 13,7 11,4 12,9 18,4 15,8 14 7 27 15 WSW 1017,1 20 0 0,0
02.07.2020 22:00:00 14,6 11,4 13,9 18,6 15,9 18 10 37 20 W 1016,8 20 6 0,0
02.07.2020 21:00:00 16,1 11,0 16,6 18,7 15,9 25 14 46 25 W 1016,5 20 60 0,0
02.07.2020 20:00:00 17,2 11,0 17,9 18,7 15,9 26 14 48 26 W 1016,0 20 57 0,0
02.07.2020 19:00:00 18,0 10,8 18,6 18,6 15,8 27 15 53 28 W 1015,5 20 56 0,0
02.07.2020 18:00:00 18,2 11,0 19,4 18,4 15,9 31 17 50 27 W 1015,2 20 56 0,0
02.07.2020 17:00:00 19,2 11,2 21,1 18,2 15,8 29 16 49 27 W 1015,2 20 57 0,0
02.07.2020 16:00:00 18,6 10,7 19,0 18,0 15,9 28 15 43 23 W 1014,7 20 43 0,0
02.07.2020 15:00:00 18,4 12,2 19,0 17,8 15,9 27 15 49 27 W 1014,6 20 15 0,0
02.07.2020 14:00:00 17,6 10,7 19,4 17,6 15,9 30 16 45 24 W 1014,2 20 25 0,0
02.07.2020 13:00:00 18,0 11,8 18,6 17,4 15,9 27 15 45 25 W 1013,8 20 18 0,0
02.07.2020 12:00:00 18,8 11,6 17,8 17,2 15,9 28 15 46 25 W 1013,1 20 34 0,0
02.07.2020 11:00:00 16,2 11,6 16,7 17,1 15,9 24 13 41 22 W 1013,0 20 34 0,0
02.07.2020 10:00:00 16,4 12,0 15,9 17,1 15,9 22 12 33 18 W 1012,7 20 13 0,0
02.07.2020 09:00:00 16,2 12,0 15,3 17,2 15,9 18 10 31 17 W 1012,0 20 25 0,0
02.07.2020 08:00:00 15,1 12,6 15,0 17,3 15,8 16 9 30 16 W 1011,8 20 11 0,0
02.07.2020 07:00:00 14,9 12,8 13,8 17,4 15,9 14 8 24 13 WSW 1011,5 20 2 0,0
02.07.2020 06:00:00 14,9 13,1 14,0 17,5 15,9 18 10 27 14 W 1011,0 20 0 0,2
02.07.2020 05:00:00 15,4 13,4 15,0 17,6 15,9 7 4 16 9 SW 1010,8 20 0 0,0
02.07.2020 04:00:00 15,4 13,4 15,0 17,7 15,9 6 4 13 7 SW 1010,9 20 0 0,0
02.07.2020 03:00:00 15,4 13,8 14,8 17,9 15,9 6 3 13 7 SW 1010,8 20 0 0,0
02.07.2020 02:00:00 15,5 13,7 14,9 18,0 15,9 4 2 14 7 SW 1010,8 20 0 0,0
02.07.2020 01:00:00 15,6 13,3 15,1 18,1 15,9 10 5 16 9 W 1010,5 20 0 0,0
02.07.2020 00:00:00 15,7 13,5 15,1 18,3 15,9 4 2 12 6 SW 1010,7 20 0 0,0
01.07.2020 23:00:00 15,8 13,5 15,4 18,5 15,9 10 5 18 10 W 1010,5 20 0 0,0
01.07.2020 22:00:00 16,3 13,2 15,8 18,6 15,9 12 7 26 14 W 1010,0 20 4 0,0
01.07.2020 21:00:00 17,4 13,1 17,4 18,7 15,9 16 9 31 17 W 1010,0 20 36 0,0
01.07.2020 20:00:00 17,5 12,4 17,6 18,7 15,9 18 10 31 17 W 1009,8 20 0 0,0
01.07.2020 19:00:00 18,0 12,9 18,6 18,7 15,9 18 10 37 20 W 1009,7 20 6 0,0
01.07.2020 18:00:00 19,1 12,6 20,1 18,6 15,9 24 13 37 20 W 1009,6 20 18 0,0
01.07.2020 17:00:00 18,6 12,3 19,8 18,6 15,9 24 13 42 23 W 1009,6 20 2 0,0
01.07.2020 16:00:00 18,3 12,9 18,8 18,4 15,9 25 13 42 23 W 1009,2 20 0 0,0
01.07.2020 15:00:00 20,0 13,0 20,2 18,2 15,9 29 16 44 24 W 1008,8 20 20 0,0
01.07.2020 14:00:00 18,8 12,5 19,1 18,0 15,9 22 12 41 22 W 1008,7 20 6 0,0
01.07.2020 13:00:00 18,7 12,4 20,6 17,8 15,9 23 12 35 19 W 1008,5 20 17 0,0
01.07.2020 12:00:00 18,2 14,1 16,2 17,6 15,9 15 8 29 15 W 1008,4 20 40 0,0
01.07.2020 11:00:00 15,7 14,9 15,3 17,6 15,9 12 6 35 19 WSW 1008,4 14 0 0,0
01.07.2020 10:00:00 15,1 14,5 14,9 17,6 15,9 17 9 39 21 W 1008,3 8 0 0,2
01.07.2020 09:00:00 15,2 14,7 15,0 17,7 15,9 19 10 30 16 WNW 1007,8 3,4 0 0,6
01.07.2020 08:00:00 17,2 16,6 16,6 17,7 15,9 10 5 24 13 SW 1006,9 17 0 0,0
01.07.2020 07:00:00 16,9 16,4 16,5 17,8 15,9 8 4 21 12 SSW 1006,8 19 0 0,4
01.07.2020 06:00:00 16,9 16,3 16,5 17,8 15,9 7 4 21 11 SSW 1007,0 3,6 0 3,8
01.07.2020 05:00:00 17,3 16,7 16,8 17,9 15,9 7 4 19 10 SW 1007,2 6 0 0,2
01.07.2020 04:00:00 17,4 16,9 17,0 17,9 15,9 6 4 14 8 SSW 1007,3 16 0 0,4
01.07.2020 03:00:00 17,4 16,9 17,0 18,0 15,9 5 3 10 5 S 1007,8 3,0 0 1,2
01.07.2020 02:00:00 17,4 16,9 17,0 18,0 15,9 4 2 6 3 SSE 1008,2 7 0 0,4
01.07.2020 01:00:00 17,5 16,9 17,0 18,1 15,9 4 2 9 5 S 1008,8 6 0 1,2
01.07.2020 00:00:00 17,5 16,9 17,1 18,2 15,9 4 2 9 5 WSW 1009,1 16 0 0,0
30.06.2020 23:00:00 17,5 16,9 17,0 18,2 15,9 5 3 14 7 WSW 1009,2 19 0 0,2
30.06.2020 22:00:00 17,5 16,7 17,0 18,2 15,9 7 4 21 12 WSW 1009,1 19 0 0,2
30.06.2020 21:00:00 17,9 16,2 17,0 18,2 15,9 16 9 27 15 W 1009,1 20 0 1,0
30.06.2020 20:00:00 19,3 16,9 19,0 18,1 15,9 9 5 19 11 WSW 1009,1 20 3 0,0
30.06.2020 19:00:00 18,9 17,0 17,8 18,0 15,9 12 7 27 15 WSW 1009,3 20 0 0,0
30.06.2020 18:00:00 20,1 15,9 19,7 17,9 15,9 13 7 36 19 WSW 1009,7 20 0 0,0
30.06.2020 17:00:00 19,4 15,3 18,8 17,8 15,9 14 8 36 19 SW 1009,9 20 0 0,0
30.06.2020 16:00:00 19,6 15,0 19,9 17,6 15,9 14 8 39 21 SW 1010,1 20 0 0,0
30.06.2020 15:00:00 19,9 14,3 20,2 17,4 15,9 13 7 32 17 SW 1010,0 20 0 0,0
30.06.2020 14:00:00 18,9 14,2 19,5 17,3 15,9 13 7 31 17 SSW 1010,4 20 0 0,0
30.06.2020 13:00:00 18,7 14,0 19,0 17,1 15,9 13 7 30 16 SW 1010,5 20 0 0,0
30.06.2020 12:00:00 17,1 13,6 17,2 17,0 15,9 11 6 28 15 S 1010,9 20 0 0,0
30.06.2020 11:00:00 17,0 12,7 17,5 16,8 15,9 12 7 29 16 SSW 1011,0 18 0 0,0
30.06.2020 10:00:00 16,6 12,3 17,0 16,7 15,9 14 7 30 16 SW 1011,5 19 0 -
30.06.2020 09:00:00 16,1 11,9 15,9 16,7 16,0 9 5 29 15 SSW 1011,4 20 11 0,0
30.06.2020 08:00:00 14,9 11,1 14,1 16,8 15,9 9 5 21 11 SSW 1011,7 20 0 0,0
30.06.2020 07:00:00 13,7 10,9 12,8 16,9 15,9 4 2 17 9 SSW 1011,8 20 0 0,0
30.06.2020 06:00:00 13,3 10,3 12,0 17,0 15,9 6 4 15 8 SSW 1011,9 20 0 0,0
30.06.2020 05:00:00 12,4 9,8 11,3 17,2 15,9 4 2 13 7 S 1012,0 20 0 0,0
30.06.2020 04:00:00 11,9 9,3 11,1 17,4 15,9 6 3 14 7 SSW 1012,4 20 0 0,0
30.06.2020 03:00:00 12,0 9,4 11,0 17,6 15,9 7 4 14 8 SSW 1012,8 20 0 0,0
30.06.2020 02:00:00 11,8 9,4 10,4 17,9 15,9 7 4 21 11 SSW 1013,1 20 0 0,0
30.06.2020 01:00:00 11,6 9,8 9,9 18,1 15,9 6 3 11 6 SSW 1013,7 20 0 0,0
30.06.2020 00:00:00 11,8 9,9 9,7 18,3 15,9 4 2 11 6 SSW 1013,9 20 0 0,0
29.06.2020 23:00:00 13,0 10,0 11,6 18,5 15,9 4 2 19 10 SW 1014,0 15 0 0,0
29.06.2020 22:00:00 14,5 9,7 13,5 18,7 15,9 13 7 33 18 W 1014,0 20 10 0,0
29.06.2020 21:00:00 15,8 9,2 15,7 18,7 15,9 22 12 45 24 W 1014,0 20 2 0,0
29.06.2020 20:00:00 16,6 8,8 17,0 18,7 15,9 24 13 55 30 W 1014,2 20 12 0,0
29.06.2020 19:00:00 16,7 9,4 17,5 18,6 15,9 32 17 58 31 W 1014,2 20 31 0,0
29.06.2020 18:00:00 17,6 8,4 18,0 18,5 15,9 36 19 61 33 W 1014,3 20 9 0,0
29.06.2020 17:00:00 18,7 8,6 19,0 18,2 15,9 32 17 - - W 1014,4 20 31 0,0
29.06.2020 16:00:00 17,4 8,0 18,5 18,0 15,9 - - - - - 1014,6 20 27 0,0
29.06.2020 15:00:00 17,7 7,1 15,7 17,9 15,9 35 19 59 32 W 1014,8 20 18 0,0

tt = temperature
td = dewpoint
tt 5cm = temperature 5cm
tt -20cm = temperature -20cm
tt -100cm = temperature -100cm
ff = wind speed
fx = gusts
dd = wind direction
ppp = reduced air pressure
vv = visibility
sd = sunshine duration
rr = precipitation

Next stations